Temperature
16 16 16 17 17 17 17 17 17 17 17 17 17 17 17 17 16 16 16 16 15 15 14 14 13 13 12 12 12 11 11 11 11 11 11 11 11 11 11 10 10 9 9
15 15 16 16 16 16 16 17 17 17 17 17 17 17 17 17 17 17 16 16 16 15 15 14 14 13 13 12 12 11 11 11 11 11 11 11 11 11 11 10 10 9 8
14 15 15 16 16 16 16 16 16 16 16 17 16 16 16 16 16 16 16 16 16 16 15 15 14 14 13 13 12 12 11 11 11 11 11 11 11 11 10 10 10 9 8
13 14 14 15 15 15 16 16 16 16 16 16 16 16 16 15 16 16 16 16 16 16 15 15 15 14 14 13 13 12 12 11 11 11 11 11 11 10 10 9 9 9 8
12 13 13 14 14 15 15 15 15 16 16 16 16 16 16 16 16 16 16 16 16 16 15 15 15 15 14 13 13 12 12 11 11 11 11 10 10 10 9 9 9 8 8
12 12 13 13 14 14 14 14 15 15 15 15 15 15 15 15 15 15 15 15 15 15 15 15 15 15 14 14 13 12 11 11 11 10 10 10 10 9 9 8 8 8 7
11 12 12 12 13 13 13 14 14 14 14 15 15 15 15 15 15 15 15 15 15 15 15 15 15 14 14 13 13 12 11 11 10 10 9 9 8 8 8 8 7 6 6
11 11 11 11 11 12 12 12 13 13 13 14 14 14 14 14 14 14 14 14 15 15 15 14 14 14 13 13 12 11 11 10 9 9 8 8 7 7 7 6 5 5 4
10 10 10 10 10 10 11 11 11 12 12 13 13 13 13 13 14 14 14 13 13 14 14 14 13 13 13 12 11 11 10 9 8 7 7 7 6 6 5 5 4 3 2
9 9 9 9 9 9 10 10 10 10 11 11 12 12 13 13 13 13 13 13 12 12 12 12 12 12 12 11 10 9 9 8 7 6 6 5 5 4 4 4 3 2 1
8 8 8 8 8 8 8 9 9 10 10 10 10 11 11 12 11 12 12 11 11 11 11 11 11 11 10 9 9 8 7 6 5 5 4 4 3 3 3 2 2 1 0
8 7 7 7 8 8 8 8 8 8 9 9 10 10 10 10 10 11 11 10 9 9 9 9 9 9 8 8 7 6 5 5 4 4 3 2 2 2 2 1 0 -0 -1
7 7 7 7 7 7 7 7 7 7 8 8 8 9 9 9 9 9 9 8 8 8 8 8 8 8 7 6 5 4 4 3 3 3 2 2 1 1 1 -0 -0 -1 -2
6 5 6 6 6 6 6 6 6 6 7 7 7 7 7 7 7 7 7 7 7 7 7 7 6 6 5 4 3 3 3 2 2 2 1 1 1 0 -0 -1 -1 -2 -2
5 4 4 5 5 5 5 5 5 5 6 6 6 6 6 6 6 6 6 6 6 6 5 5 4 4 3 2 2 2 2 2 1 1 1 0 -0 -1 -1 -2 -2 -3 -4
3 3 3 4 4 4 4 4 4 4 5 5 5 5 5 5 4 4 4 4 4 3 3 3 2 2 2 1 1 1 1 1 1 0 -0 -1 -1 -2 -2 -3 -4 -4 -5
3 2 2 3 3 3 3 3 3 3 3 4 3 3 3 3 3 3 2 2 2 1 1 1 1 1 1 1 1 1 0 0 -0 -1 -1 -2 -2 -3 -3 -4 -4 -4 -5
2 2 2 2 2 2 2 2 2 2 2 2 2 2 2 2 1 1 1 0 0 0 0 0 0 0 0 0 -0 -0 -0 -1 -1 -2 -2 -3 -3 -3 -4 -4 -5 -5 -6
1 1 1 1 1 1 1 1 1 1 1 1 0 0 0 0 0 -0 -0 -0 -0 -0 -0 -0 -0 -0 -0 -1 -1 -1 -1 -2 -2 -3 -3 -4 -4 -4 -5 -7 -7 -6 -6
1 1 1 0 0 0 0 0 0 0 -0 -0 -0 -0 -0 -0 -0 -0 -1 -1 -0 -0 -0 -1 -1 -1 -1 -2 -2 -2 -2 -3 -3 -3 -4 -5 -5 -6 -7 -8 -8 -7 -7
1 0 0 0 -0 -0 -0 -0 -0 -1 -1 -1 -1 -1 -1 -1 -1 -1 -1 -1 -0 -1 -1 -1 -1 -2 -2 -3 -3 -3 -3 -4 -4 -4 -5 -5 -6 -7 -8 -8 -8 -8 -8
0 -0 -0 -0 -1 -1 -1 -1 -1 -1 -1 -1 -1 -1 -1 -0 -1 -1 -1 -1 -1 -1 -1 -2 -2 -2 -3 -3 -4 -4 -5 -5 -5 -5 -5 -6 -7 -7 -7 -7 -7 -8 -8
0 -0 -0 -1 -1 -1 -1 -1 -1 -1 -1 -1 -1 -1 -0 -0 -1 -1 -1 -1 -2 -2 -2 -2 -3 -3 -4 -4 -5 -5 -5 -6 -6 -6 -7 -7 -7 -7 -7 -7 -7 -7 -7
1 -0 -0 -0 -1 -0 -0 -0 -0 -0 -0 -0 -0 -1 -0 -1 -1 -1 -1 -2 -2 -2 -2 -3 -3 -4 -4 -5 -5 -5 -6 -6 -6 -6 -7 -7 -7 -7 -7 -7 -7 -7 -8
1 1 0 0 0 0 0 0 0 -0 -0 -0 -0 -0 -1 -1 -1 -1 -2 -2 -2 -3 -3 -4 -4 -4 -5 -6 -6 -6 -7 -7 -7 -7 -7 -7 -7 -7 -7 -7 -7 -7 -7
2 1 1 1 1 0 0 0 0 -0 -0 -0 -0 -1 -1 -1 -2 -2 -2 -3 -3 -3 -4 -4 -5 -5 -6 -6 -6 -7 -7 -7 -8 -8 -8 -8 -8 -8 -8 -7 -7 -7 -7
Wind_Speed
9 8 8 8 7 7 9 10 11 12 11 10 12 13 14 13 12 13 16 18 18 19 16 9 10 10 10 11 10 6 5 3 4 4 2 2 2 1 1 3 3 4 5
8 7 6 6 6 6 7 8 10 10 11 11 11 10 11 10 12 10 11 16 17 18 16 13 12 12 10 10 11 7 5 3 4 4 3 2 1 1 1 1 3 3 4
9 7 5 5 5 5 6 7 8 9 10 11 8 5 5 4 7 9 11 13 17 18 16 15 13 14 13 13 13 11 10 6 3 2 4 5 5 2 0 0 1 2 2
5 5 5 5 4 5 5 6 7 8 8 9 9 11 12 13 13 12 13 13 15 16 17 15 14 15 13 13 14 11 7 8 5 2 1 2 3 4 3 1 1 1 3
5 5 5 5 5 4 4 4 5 6 6 7 10 12 13 13 9 8 10 12 12 13 14 14 13 14 12 12 12 11 9 6 6 6 4 3 2 2 3 3 2 1 2
7 7 7 7 7 7 6 5 5 5 5 6 8 11 14 13 10 10 12 11 8 9 12 12 12 12 11 11 12 11 11 7 7 5 4 4 4 4 3 3 2 2 2
8 10 11 11 11 11 9 8 7 7 6 6 7 10 13 13 14 13 13 12 10 9 13 12 12 10 10 10 10 10 9 8 9 7 4 3 3 3 3 3 2 1 2
7 8 9 9 10 11 11 10 9 9 8 7 7 8 9 9 9 11 10 11 10 10 11 12 11 10 10 10 9 9 8 7 8 8 7 6 4 3 3 4 4 1 1
8 9 9 9 9 10 11 10 10 10 9 8 7 7 7 8 8 8 8 6 6 6 9 10 11 11 11 11 11 9 9 9 8 8 8 6 4 3 4 4 4 4 2
9 10 9 9 9 9 10 10 9 9 9 8 6 5 5 6 6 5 6 6 7 8 10 11 12 12 12 12 11 11 11 10 9 7 8 6 4 4 3 3 3 3 4
9 9 9 9 10 10 9 10 10 9 8 7 6 4 3 2 3 4 6 7 8 11 12 12 13 13 13 13 13 12 12 12 10 8 7 6 5 4 3 2 2 3 3
8 8 9 9 9 10 10 10 9 8 8 6 4 2 1 2 4 5 7 9 11 11 12 13 13 13 13 13 14 14 12 11 10 8 7 5 4 4 2 2 3 3 4
8 8 8 9 9 9 9 9 9 8 6 5 5 5 5 6 7 8 9 10 11 12 12 13 14 14 13 13 13 13 12 11 9 8 6 5 3 2 1 2 3 3 4
7 8 8 8 8 8 8 8 8 7 6 6 6 7 7 8 9 9 10 11 12 13 13 14 14 14 14 14 13 13 12 10 8 7 5 4 2 2 2 3 4 4 4
7 8 8 8 8 8 8 8 8 8 7 8 9 9 9 10 11 12 12 13 13 14 15 15 15 14 12 12 13 11 10 9 7 5 4 2 1 2 2 3 4 4 4
7 7 7 7 7 7 7 7 7 8 8 10 11 11 12 13 13 13 14 14 14 14 15 14 14 13 11 16 15 11 9 7 6 5 3 2 2 3 5 7 8 8 5
5 6 6 5 6 5 5 6 6 7 9 10 11 11 12 13 14 14 14 14 14 14 14 13 13 13 13 15 14 12 8 6 5 4 2 1 1 3 3 7 9 9 12
3 4 4 4 4 5 5 6 7 8 10 10 11 11 12 13 13 14 13 12 11 12 12 11 11 10 11 13 12 11 7 5 4 3 2 1 3 4 6 6 6 6 7
2 2 3 4 5 5 6 7 8 8 9 9 9 10 11 12 12 12 12 10 11 10 9 9 9 9 8 9 9 9 5 4 3 1 0 2 4 9 11 6 5 7 7
3 4 5 6 6 6 6 8 8 9 9 9 9 9 10 11 11 11 10 9 9 9 9 9 8 7 4 6 7 7 3 3 1 0 2 5 7 10 11 6 5 7 8
5 5 6 6 5 5 7 9 8 9 8 8 9 10 10 10 10 10 9 9 9 9 9 8 7 6 6 6 7 7 3 1 0 1 2 4 10 12 13 11 5 9 11
5 5 6 6 5 6 7 8 8 6 7 8 9 9 9 8 8 9 9 8 8 8 7 7 6 5 5 6 6 6 5 4 0 2 3 5 12 13 13 10 11 14 11
5 5 6 6 5 5 6 8 6 6 8 9 9 9 9 8 8 8 7 6 6 5 5 5 4 3 4 4 6 7 7 8 3 3 8 10 13 12 9 11 12 9 5
6 5 6 6 5 5 6 6 6 7 8 9 8 7 8 8 7 6 5 5 5 5 4 4 3 2 2 3 3 2 3 6 5 4 6 10 11 9 9 9 7 5 5
6 6 6 7 6 6 6 6 6 7 8 8 7 7 7 7 7 6 5 5 3 4 4 2 2 1 2 4 7 5 3 4 4 3 3 3 4 5 6 5 5 5 5
7 7 7 7 7 6 6 6 6 7 8 7 6 5 5 5 5 5 5 8 7 8 7 4 2 1 4 7 8 9 10 10 10 5 3 4 5 6 6 7 8 7 7
Wind_Direction
262 255 249 249 241 235 229 226 221 219 210 204 208 211 216 215 214 214 211 206 201 196 194 191 180 179 182 180 168 146 139 134 143 119 98 45 57 128 166 178 171 177 172
283 273 258 250 238 234 230 230 227 224 213 209 209 210 213 216 216 213 208 205 202 197 196 191 188 186 181 175 175 158 146 144 167 149 138 185 291 259 118 167 179 179 168
289 296 291 272 261 248 238 236 231 229 222 216 208 199 195 201 204 208 210 207 202 200 198 193 188 187 184 186 185 178 162 159 176 184 158 165 210 201 286 6 152 169 163
307 306 310 302 283 268 260 249 245 239 232 219 208 204 209 215 215 213 213 206 201 200 199 194 191 188 189 188 188 181 170 153 162 166 114 109 139 154 188 256 256 201 187
342 340 336 325 322 316 307 287 273 261 250 231 218 214 220 223 219 210 207 205 201 199 198 193 192 190 190 187 180 176 173 166 160 159 150 134 85 111 155 196 223 250 219
13 9 3 2 356 350 342 328 309 286 270 248 232 223 224 222 213 208 209 206 199 196 195 191 191 189 186 181 178 175 172 163 151 150 150 154 156 166 160 168 189 230 272
13 9 4 359 353 348 342 334 322 304 292 269 248 235 231 225 219 214 213 206 200 200 197 190 188 184 178 170 163 162 162 154 150 149 138 125 121 131 135 133 146 196 307
6 2 353 346 339 335 333 330 321 307 298 284 267 254 241 230 227 219 213 209 208 203 186 181 175 167 159 156 152 147 143 136 135 133 125 120 117 118 128 135 138 150 296
354 348 341 336 330 326 322 319 314 307 301 290 276 262 248 233 226 216 205 198 189 170 162 160 154 148 145 143 139 135 131 129 123 122 119 117 114 107 109 124 142 157 214
344 341 336 330 326 319 315 315 312 304 300 296 281 268 252 237 219 195 185 171 153 141 143 143 141 138 137 136 131 129 126 122 119 121 120 117 119 120 121 129 139 159 181
330 330 328 324 321 322 322 322 321 317 312 304 292 278 265 226 175 164 158 145 136 138 140 138 136 135 134 133 129 127 125 122 119 117 118 118 123 123 121 128 153 181 185
326 326 326 327 330 332 333 333 330 328 324 322 324 326 28 109 119 122 123 126 129 132 133 132 130 129 128 127 126 125 123 123 121 116 113 114 115 111 126 162 195 209 207
332 336 338 339 340 341 341 344 346 344 349 8 27 43 63 84 96 106 114 119 122 122 122 123 122 121 119 117 115 115 113 111 111 111 114 119 120 134 171 202 221 230 233
333 340 339 339 342 345 349 356 358 359 13 39 56 63 69 83 93 97 101 106 111 112 111 111 111 111 110 110 110 109 106 105 103 103 108 116 133 189 214 228 238 242 248
342 345 340 341 348 355 1 6 11 17 35 55 63 67 74 81 85 89 93 96 100 103 105 105 104 104 105 108 109 108 111 111 108 103 101 109 147 232 240 252 245 236 243
339 341 344 353 360 2 7 15 23 31 49 63 68 72 79 82 83 86 91 94 96 98 100 103 104 102 104 111 111 112 109 111 112 110 94 65 45 357 341 315 299 285 270
333 342 349 358 6 10 20 31 39 47 60 68 73 77 82 85 88 90 90 92 94 96 96 96 98 100 108 112 112 112 114 116 115 112 98 63 351 353 308 298 300 299 297
334 349 360 17 25 33 46 54 57 63 69 73 77 83 88 91 92 92 92 92 92 92 93 94 96 99 104 108 112 114 110 107 106 111 136 233 292 296 290 267 268 267 274
25 29 39 54 53 54 61 68 67 68 71 74 78 85 93 96 95 94 93 92 93 90 90 91 90 92 96 104 112 112 105 101 101 119 155 295 285 301 309 305 287 286 284
74 70 67 68 65 61 71 75 71 71 71 74 79 83 87 92 92 92 91 89 91 90 87 81 77 82 82 99 102 109 108 103 94 359 305 316 314 310 315 308 292 294 292
93 87 80 74 70 75 83 82 77 74 76 81 81 81 84 88 91 90 88 90 90 89 86 83 71 61 64 70 73 79 100 108 72 315 301 295 318 319 318 320 313 298 305
107 101 94 83 73 81 94 92 84 82 83 85 83 80 79 84 88 90 87 86 92 93 90 87 72 49 38 47 49 41 27 18 95 298 288 295 320 326 327 326 314 314 324
126 116 109 98 83 82 99 103 95 94 92 87 84 82 79 76 80 87 91 87 86 92 89 83 74 48 28 17 24 18 7 357 351 312 323 329 332 333 332 323 323 332 329
137 130 121 111 100 94 97 103 105 104 98 93 89 86 85 79 71 72 77 86 88 90 88 86 79 50 8 337 324 323 330 340 335 329 335 338 337 335 326 325 325 312 295
143 139 134 126 121 114 108 108 111 111 104 98 92 87 84 86 78 74 78 88 84 116 114 119 129 97 336 334 353 356 338 331 317 349 3 344 334 332 326 317 306 300 304
146 141 137 133 130 125 119 116 115 116 114 107 98 94 92 89 88 84 71 74 80 79 80 86 80 357 353 353 354 348 347 343 341 359 343 326 321 317 317 317 316 313 308
Height
1471 1473 1475 1476 1478 1479 1481 1483 1485 1487 1489 1491 1492 1494 1496 1498 1501 1503 1506 1508 1510 1513 1515 1517 1520 1522 1524 1527 1529 1532 1533 1535 1536 1538 1538 1539 1539 1538 1538 1538 1538 1538 1538
1465 1466 1468 1469 1471 1473 1474 1476 1478 1480 1482 1484 1486 1487 1489 1491 1494 1497 1499 1502 1505 1507 1509 1511 1513 1516 1519 1521 1524 1526 1528 1530 1532 1533 1534 1535 1535 1534 1534 1534 1534 1535 1534
1459 1460 1461 1463 1464 1466 1468 1470 1472 1474 1476 1477 1479 1480 1482 1484 1486 1489 1491 1494 1498 1500 1503 1505 1507 1510 1512 1514 1517 1520 1522 1524 1526 1528 1530 1530 1529 1529 1529 1529 1530 1530 1530
1456 1457 1457 1458 1459 1461 1462 1464 1466 1467 1469 1471 1472 1473 1474 1475 1477 1481 1484 1487 1490 1492 1496 1498 1500 1503 1505 1507 1510 1513 1515 1518 1520 1522 1523 1524 1524 1525 1524 1525 1525 1525 1525
1455 1455 1455 1455 1456 1457 1458 1459 1460 1462 1463 1464 1465 1466 1467 1468 1471 1473 1476 1479 1481 1484 1487 1490 1493 1495 1498 1500 1503 1506 1508 1511 1513 1515 1517 1518 1519 1519 1520 1520 1521 1521 1521
1454 1454 1454 1454 1454 1455 1455 1455 1456 1457 1457 1458 1458 1459 1460 1461 1463 1464 1467 1470 1472 1475 1478 1482 1485 1488 1490 1493 1496 1498 1501 1504 1506 1509 1510 1512 1512 1513 1514 1515 1515 1516 1516
1454 1454 1453 1452 1452 1452 1452 1452 1451 1451 1452 1452 1452 1452 1453 1454 1455 1456 1459 1461 1463 1466 1469 1473 1476 1480 1483 1486 1489 1491 1494 1497 1499 1501 1503 1505 1507 1508 1509 1510 1510 1511 1511
1454 1453 1453 1451 1450 1449 1448 1447 1446 1446 1446 1446 1445 1446 1446 1447 1447 1449 1451 1453 1455 1458 1461 1465 1468 1472 1475 1478 1482 1485 1488 1490 1493 1495 1496 1499 1501 1502 1503 1504 1505 1505 1505
1453 1452 1451 1449 1447 1446 1444 1442 1441 1440 1439 1439 1439 1439 1439 1440 1441 1442 1443 1445 1447 1450 1454 1457 1461 1465 1468 1472 1475 1478 1481 1484 1486 1489 1490 1492 1494 1497 1497 1498 1499 1501 1499
1452 1450 1448 1446 1444 1442 1440 1438 1436 1434 1433 1432 1432 1432 1432 1433 1434 1435 1436 1438 1441 1443 1447 1450 1454 1458 1462 1465 1469 1472 1475 1478 1481 1483 1486 1487 1489 1491 1492 1493 1494 1494 1494
1451 1448 1446 1443 1441 1438 1435 1433 1430 1428 1427 1426 1425 1425 1426 1426 1428 1429 1431 1433 1435 1438 1441 1445 1448 1452 1456 1460 1464 1467 1470 1473 1476 1479 1481 1483 1485 1486 1487 1488 1489 1488 1487
1449 1446 1443 1440 1437 1434 1431 1428 1426 1423 1422 1421 1420 1420 1420 1421 1422 1424 1425 1428 1430 1433 1437 1441 1444 1448 1452 1456 1459 1463 1466 1470 1473 1475 1477 1480 1481 1482 1483 1483 1483 1483 1482
1446 1443 1441 1438 1434 1431 1428 1426 1423 1420 1418 1417 1416 1416 1416 1417 1418 1420 1422 1424 1427 1430 1434 1438 1441 1445 1449 1452 1456 1460 1464 1467 1470 1472 1474 1476 1477 1478 1478 1478 1478 1478 1476
1444 1441 1438 1436 1433 1430 1427 1424 1421 1419 1417 1415 1414 1413 1414 1415 1417 1418 1420 1423 1425 1428 1432 1435 1439 1443 1447 1451 1455 1458 1462 1465 1467 1469 1471 1473 1473 1473 1474 1474 1473 1472 1470
1442 1439 1437 1434 1432 1429 1426 1424 1421 1419 1416 1415 1413 1413 1414 1415 1416 1418 1420 1422 1425 1427 1431 1434 1438 1443 1447 1451 1454 1458 1461 1463 1465 1467 1468 1468 1469 1469 1469 1469 1468 1467 1464
1440 1438 1436 1433 1431 1429 1427 1425 1422 1420 1417 1415 1414 1414 1415 1415 1417 1418 1420 1422 1425 1428 1431 1435 1439 1444 1448 1452 1455 1458 1460 1462 1463 1464 1465 1465 1465 1465 1464 1464 1463 1462 1460
1439 1437 1435 1433 1431 1430 1428 1426 1423 1421 1419 1418 1417 1417 1417 1417 1418 1420 1422 1425 1428 1431 1434 1438 1442 1446 1449 1452 1455 1457 1459 1460 1461 1461 1462 1462 1462 1461 1460 1458 1457 1456 1454
1438 1436 1435 1433 1432 1431 1429 1427 1426 1424 1422 1421 1420 1420 1420 1421 1422 1424 1426 1429 1433 1435 1438 1442 1445 1448 1451 1453 1455 1456 1457 1458 1459 1459 1459 1459 1458 1457 1455 1452 1451 1449 1448
1437 1436 1435 1434 1433 1432 1430 1429 1428 1427 1426 1425 1424 1424 1425 1426 1427 1429 1431 1434 1437 1440 1442 1445 1448 1450 1452 1453 1454 1455 1456 1457 1457 1457 1456 1455 1454 1452 1449 1448 1445 1443 1442
1436 1435 1435 1434 1434 1433 1432 1432 1431 1430 1429 1429 1429 1430 1431 1431 1433 1435 1437 1439 1442 1444 1446 1448 1450 1451 1453 1454 1454 1455 1455 1455 1455 1454 1452 1451 1449 1447 1445 1443 1441 1438 1436
1436 1436 1435 1435 1435 1435 1435 1434 1434 1433 1434 1434 1434 1435 1436 1437 1439 1440 1442 1444 1446 1447 1449 1450 1451 1452 1454 1454 1454 1454 1453 1453 1452 1450 1448 1447 1445 1443 1442 1440 1437 1434 1432
1436 1436 1436 1436 1437 1437 1437 1437 1437 1437 1438 1439 1439 1440 1441 1443 1444 1445 1447 1448 1449 1450 1451 1452 1453 1454 1454 1454 1453 1452 1451 1450 1448 1446 1445 1443 1441 1439 1437 1435 1433 1430 1428
1436 1436 1437 1438 1438 1438 1439 1439 1440 1441 1442 1443 1444 1445 1446 1447 1448 1449 1450 1451 1452 1452 1453 1453 1454 1453 1453 1452 1451 1450 1449 1447 1445 1443 1441 1439 1437 1435 1433 1431 1429 1426 1424
1436 1437 1438 1439 1440 1441 1442 1443 1444 1445 1446 1447 1448 1449 1450 1451 1452 1452 1453 1453 1454 1454 1454 1454 1453 1453 1452 1451 1449 1448 1446 1444 1442 1440 1438 1437 1434 1432 1430 1428 1426 1424 1421
1436 1437 1439 1440 1442 1443 1444 1446 1447 1449 1450 1451 1452 1453 1453 1454 1454 1455 1455 1455 1455 1455 1454 1453 1453 1452 1450 1449 1448 1446 1443 1441 1439 1437 1436 1434 1432 1430 1428 1426 1423 1421 1418
1436 1438 1440 1442 1443 1445 1447 1448 1450 1451 1452 1453 1454 1455 1455 1456 1456 1456 1456 1455 1455 1454 1453 1452 1452 1450 1449 1447 1445 1444 1441 1439 1438 1435 1433 1431 1429 1427 1425 1422 1420 1417 1414